Snowfall_Accumulation
0.0 0.2 0.7 1.2 0.4 2.5 2.6 3.0 2.1 0.0 0.0 0.2 0.0 0.0 0.0 0.0 0.0 0.0 0.0 0.0 0.0 0.0 0.0 0.0 0.0 0.0 0.0 0.0 0.0 0.0 0.0 0.0 0.0 0.0 0.0 0.0 0.0 0.0 0.0 0.0 0.0 0.0 0.0 0.0
0.0 0.0 0.3 0.0 0.0 0.0 2.0 1.8 0.3 0.0 0.0 0.4 0.0 0.0 0.0 0.0 0.0 0.0 0.0 0.0 0.0 0.0 0.0 0.0 0.0 0.0 0.0 0.0 0.0 0.0 0.0 0.0 0.0 0.0 0.0 0.0 0.0 0.0 0.0 0.0 0.0 0.0 0.0 0.0
0.0 0.0 0.0 0.0 0.0 0.4 0.0 2.4 0.9 0.4 0.1 0.0 0.0 0.2 0.0 0.0 0.0 0.0 0.0 0.0 0.0 0.0 0.0 0.0 0.0 0.0 0.0 0.0 0.0 0.0 0.0 0.0 0.0 0.0 0.0 0.0 0.0 0.0 0.0 0.0 0.0 0.0 0.0 0.0
0.0 0.0 0.0 0.0 0.0 0.4 0.0 0.0 0.1 1.3 2.8 1.8 0.9 1.9 0.0 0.0 0.0 0.0 0.0 0.0 0.0 0.0 0.0 0.0 0.0 0.0 0.0 0.0 0.0 0.0 0.0 0.0 0.0 0.0 0.0 0.0 0.0 0.0 0.0 0.0 0.0 0.0 0.0 0.0
0.0 0.0 0.1 0.1 0.0 0.0 0.0 0.0 0.5 1.3 3.7 3.2 0.6 2.9 0.0 0.0 0.0 0.1 0.0 0.0 0.0 0.0 0.0 0.0 0.0 0.0 0.0 0.0 0.0 0.0 0.0 0.0 0.0 0.0 0.0 0.0 0.0 0.0 0.0 0.0 0.0 0.0 0.0 0.0
0.0 0.1 0.0 0.1 0.0 0.2 0.2 0.0 0.0 1.3 6.0 7.3 0.1 2.3 2.5 0.1 2.1 1.1 0.2 0.0 0.0 0.0 0.0 0.0 0.0 0.0 0.0 0.0 0.0 0.0 0.0 0.0 0.0 0.0 0.0 0.0 0.0 0.0 0.0 0.0 0.0 0.0 0.0 0.0
0.0 0.3 0.0 0.0 0.0 0.0 0.0 0.5 0.4 4.0 7.8 5.2 0.1 2.4 6.4 4.6 3.8 2.0 0.8 0.2 0.1 0.0 0.0 0.0 0.0 0.0 0.0 0.0 0.0 0.0 0.0 0.0 0.0 0.0 0.0 0.0 0.0 0.0 0.0 0.0 0.0 0.0 0.0 0.0
0.0 0.1 0.0 0.0 0.0 0.0 0.5 2.7 2.3 3.2 2.0 0.4 0.6 10.7 6.1 3.7 2.8 2.0 1.4 0.6 0.2 0.1 0.0 0.0 0.0 0.0 0.0 0.0 0.0 0.0 0.0 0.0 0.0 0.0 0.0 0.0 0.0 0.0 0.0 0.0 0.0 0.0 0.0 0.0
0.5 0.0 0.1 0.0 0.0 0.0 0.0 2.3 1.5 1.1 0.6 3.5 9.2 10.8 5.0 2.7 2.6 3.0 2.4 0.9 0.6 0.6 0.6 0.0 0.0 0.0 0.0 0.0 0.0 0.0 0.0 0.0 0.0 0.0 0.0 0.0 0.0 0.0 0.0 0.0 0.0 0.0 0.0 0.0
0.4 1.5 0.0 0.0 0.0 0.0 0.4 1.0 1.8 1.9 2.8 8.3 8.9 7.1 6.6 5.2 3.3 3.7 3.3 2.2 1.4 0.8 1.2 0.4 0.3 0.0 0.0 0.0 0.0 0.0 0.0 0.0 0.0 0.0 0.0 0.0 0.0 0.0 0.0 0.0 0.0 0.0 0.0 0.0
0.4 0.7 0.1 0.0 0.0 0.0 0.0 0.6 1.3 2.0 1.9 5.7 7.5 6.6 5.9 5.2 3.6 3.6 4.2 3.4 2.4 1.7 1.5 2.0 0.5 1.0 0.0 0.0 0.0 0.0 0.0 0.0 0.0 0.0 0.0 0.0 0.0 0.0 0.0 0.0 0.0 0.0 0.0 0.0
0.2 0.2 0.2 0.4 0.0 0.0 0.0 0.5 1.0 2.3 2.3 2.7 4.6 5.7 4.9 3.8 4.2 3.0 3.7 3.8 3.3 2.6 2.1 2.4 2.6 1.4 0.7 0.0 0.0 0.0 0.0 0.0 0.0 0.0 0.0 0.0 0.0 0.0 0.0 0.0 0.0 0.0 0.0 0.0
0.1 0.0 0.1 0.2 0.1 0.0 0.0 0.0 0.6 1.5 2.4 2.8 3.3 3.7 3.7 3.4 3.0 3.5 3.3 3.7 3.8 3.3 2.6 2.4 3.3 2.9 3.7 1.7 2.1 0.2 0.0 0.0 0.0 0.0 0.0 0.0 0.0 0.0 0.0 0.0 0.0 0.0 0.0 0.0
0.0 0.0 0.3 0.5 0.1 0.1 0.0 0.0 0.0 0.9 1.7 1.9 2.1 1.5 2.4 3.6 3.8 3.0 2.7 3.0 3.5 3.5 3.4 3.0 3.5 5.2 4.1 5.4 3.6 0.9 0.0 0.0 0.0 0.0 0.0 0.0 0.0 0.0 0.0 0.0 0.0 0.0 0.0 0.0
0.0 0.1 0.1 0.0 0.0 0.0 0.0 0.0 0.0 0.5 1.2 1.0 1.6 0.7 1.1 2.8 4.3 4.0 2.9 2.1 1.9 2.3 2.7 3.1 3.4 4.2 6.0 4.8 5.4 5.9 3.0 0.9 0.0 0.0 0.0 0.0 0.0 0.0 0.0 0.0 0.0 0.0 0.0 0.0
0.0 0.1 0.0 0.1 0.0 0.0 0.1 0.0 0.0 0.0 0.7 0.9 0.7 1.1 1.0 1.5 2.0 3.2 2.6 2.2 1.6 1.5 1.6 2.0 2.3 2.4 3.5 5.5 4.7 6.6 7.4 5.2 2.8 2.6 0.0 0.0 0.0 0.0 0.0 0.0 0.0 0.0 0.0 0.0
0.0 0.0 0.2 0.1 0.0 0.0 0.4 0.0 0.0 0.2 0.5 0.6 0.6 0.6 0.6 0.7 0.9 1.6 2.9 3.5 2.4 1.5 1.1 1.0 1.2 1.3 1.5 2.3 3.6 3.8 5.6 7.0 6.1 5.1 3.5 0.0 0.0 0.0 0.0 0.0 0.0 0.0 0.0 0.0
0.0 0.0 0.1 0.1 0.0 0.5 0.0 0.0 0.0 0.0 0.2 0.2 0.0 0.0 0.1 0.2 0.6 0.5 0.7 1.0 2.3 2.2 1.0 0.8 0.5 0.3 0.1 0.1 0.4 1.8 2.1 3.6 6.1 5.7 4.9 5.1 3.4 2.1 0.0 0.0 2.2 0.0 0.0 0.0
0.0 0.0 0.0 0.1 0.1 0.1 0.0 0.0 0.0 0.1 0.2 0.0 0.1 0.0 0.0 0.0 0.0 0.5 0.2 0.2 0.0 0.4 1.2 0.8 0.3 0.1 0.0 0.0 0.0 0.0 0.8 1.4 2.4 4.2 4.9 4.4 4.4 4.1 2.8 0.7 0.4 0.0 0.0 0.0
0.0 0.0 0.0 0.0 0.2 0.3 0.0 0.0 0.0 0.0 0.2 0.0 0.0 0.0 0.0 0.0 0.5 0.1 0.0 0.0 0.0 0.0 0.0 0.0 0.0 0.0 0.0 0.0 0.0 0.0 0.0 0.1 0.8 1.4 2.3 2.8 3.1 3.1 3.3 2.6 2.0 0.3 0.0 0.0
0.0 0.0 0.0 0.0 0.1 0.0 0.0 0.0 0.0 0.1 0.0 0.0 0.0 0.0 0.0 0.0 0.0 0.0 0.0 0.0 0.0 0.0 0.0 0.0 0.0 0.0 0.0 0.0 0.0 0.0 0.0 0.0 0.0 0.0 0.1 1.0 1.5 1.8 1.8 1.9 1.8 1.7 1.3 0.8
0.0 0.0 0.0 0.0 0.0 0.1 0.0 0.0 0.0 0.0 0.0 0.0 0.0 0.0 0.0 0.0 0.0 0.0 0.0 0.0 0.0 0.0 0.0 0.0 0.0 0.0 0.0 0.0 0.0 0.0 0.0 0.0 0.0 0.0 0.0 0.4 0.6 0.9 1.0 1.2 1.3 1.3 1.2 1.1
0.0 0.0 0.0 0.0 0.0 0.0 0.0 0.0 0.0 0.0 0.0 0.0 0.0 0.0 0.0 0.0 0.0 0.0 0.0 0.0 0.0 0.0 0.0 0.0 0.0 0.0 0.0 0.0 0.0 0.0 0.0 0.0 0.0 0.0 0.0 0.2 0.2 0.2 0.3 0.5 0.7 0.9 1.1 1.3
0.0 0.0 0.0 0.0 0.0 0.0 0.0 0.0 0.0 0.0 0.0 0.0 0.0 0.0 0.0 0.0 0.0 0.0 0.0 0.0 0.0 0.0 0.0 0.0 0.0 0.0 0.0 0.0 0.0 0.0 0.0 0.0 0.0 0.0 0.0 0.0 0.0 0.1 0.1 0.1 0.1 0.2 0.4 0.8
0.0 0.0 0.0 0.0 0.0 0.0 0.0 0.0 0.0 0.0 0.0 0.0 0.0 0.0 0.0 0.0 0.0 0.0 0.0 0.0 0.0 0.0 0.0 0.0 0.0 0.0 0.0 0.0 0.0 0.0 0.0 0.0 0.0 0.0 0.0 0.0 0.0 0.0 0.0 0.1 0.0 0.0 0.0 0.0
0.0 0.0 0.0 0.0 0.0 0.0 0.0 0.0 0.0 0.0 0.0 0.0 0.0 0.0 0.0 0.0 0.0 0.0 0.0 0.0 0.0 0.0 0.0 0.0 0.0 0.0 0.0 0.0 0.0 0.0 0.0 0.0 0.0 0.0 0.0 0.0 0.0 0.0 0.0 0.0 0.0 0.0 0.0 0.0